Regional Weather Roundup
Issued by NWS

Home | Current Version | Previous Version | Graphics & Text | Print | Product List | Glossary On
Versions: 1 2 3 4 5 6 7 8 9 10 11 12 13 14 15 16 17 18 19 20 21 22 23 24 25 26 27 28 29 30 31 32 33 34 35 36 37 38 39 40 41 42 43 44 45 46 47 48 49 50
000
ASUS43 KOAX 210302
RWRNE

WEATHER ROUNDUP FOR NEBRASKA
NATIONAL WEATHER SERVICE OMAHA NE
1000 PM CDT FRI APR 20 2018

NOTES: SATELLITE DATA IS BEING USED TO AUGMENT CLOUD COVER ABOVE
       12000 FEET.
       "FAIR" INDICATES FEW OR NO CLOUDS BELOW 12,000 FEET WITH NO
       SIGNIFICANT WEATHER AND/OR OBSTRUCTIONS TO VISIBILITY.


NEZ001>004-019>022-054>056-210400-
NEBRASKA PANHANDLE

CITY           SKY/WX    TMP DP  RH WIND       PRES   REMARKS
SCOTTSBLUFF    CLOUDY    37 N/A N/A SE16      30.17S FOG     WCI  28
ALLIANCE       CLOUDY    37  37 100 SE12      30.19R WCI  29
CHADRON        CLOUDY    41  37  86 SE7       30.21R
GORDON         CLOUDY    38  36  94 E10       30.23R WCI  31
KIMBALL        DRIZZLE   37  37 100 SE16      30.13R WCI  27
SIDNEY         CLOUDY    37  33  85 SE14      30.15R WCI  28
$$

NEZ057>060-069>072-079>082-210400-
SOUTHWEST NEBRASKA

CITY           SKY/WX    TMP DP  RH WIND       PRES   REMARKS
NORTH PLATTE   CLOUDY    41  37  86 E16       30.21R
IMPERIAL       LGT RAIN  39  38  96 E15G21    30.18R WCI  31
LEXINGTON      CLOUDY    43  39  86 NE16G22   30.23R
MCCOOK         CLOUDY    42  39  89 NE10      30.18R
OGALLALA       CLOUDY    40  38  93 E13       30.21R WCI  33
$$

NEZ005>010-023>029-035>040-094-210400-
NORTH CENTRAL NEBRASKA

CITY           SKY/WX    TMP DP  RH WIND       PRES   REMARKS
VALENTINE      CLOUDY    42  39  89 E7        30.29R
AINSWORTH      LGT RAIN  42  39  89 NE8       30.29S
BROKEN BOW     CLOUDY    43  38  82 NE16      30.24F
O`NEILL        CLOUDY    48  39  71 SE9       30.33S
ORD            CLOUDY    44  40  85 N10       30.26F
THEDFORD       DRIZZLE   41  38  89 E10       30.25S
$$

NEZ041-046>049-061>064-073>077-083>087-210400-
SOUTH CENTRAL NEBRASKA

CITY           SKY/WX    TMP DP  RH WIND       PRES   REMARKS
GRAND ISLAND   CLOUDY    48  34  58 E7        30.26R
AURORA         CLOUDY    49  29  46 E9        30.26R
HASTINGS       LGT RAIN  49  35  58 SE7       30.26R
HEBRON         CLOUDY    55  27  34 E10G16    30.23S
HOLDREGE       DRIZZLE   46  39  78 E13       30.21S
KEARNEY        CLOUDY    45  39  79 E7        30.24R
YORK             N/A     50  28  43 E9        30.26S
$$

NEZ011>018-030>034-042>045-210400-
NORTHEAST NEBRASKA

CITY           SKY/WX    TMP DP  RH WIND       PRES   REMARKS
NORFOLK        CLOUDY    50  31  48 NE8       30.30S
ALBION         CLOUDY    50  33  53 NE12      30.27F
BLAIR          CLOUDY    53  30  41 E8        30.31F
COLUMBUS       CLOUDY    50  32  50 NE8       30.29F
FREMONT        CLOUDY    55  29  36 E7        30.31F
TEKAMAH        CLOUDY    52  31  44 E8        30.32S
WAYNE          CLOUDY    48  38  68 E12       30.34S
$$

NEZ050>053-065>068-078-088>093-210400-
SOUTHEAST NEBRASKA

CITY           SKY/WX    TMP DP  RH WIND       PRES   REMARKS
LINCOLN        CLOUDY    54  28  36 E10       30.30S
OMAHA EPPLEY   CLOUDY    55  28  35 E12       30.31S
BEATRICE       CLOUDY    54  30  39 E9        30.26F
FALLS CITY     CLOUDY    53  26  35 E7        30.27R
NEBRASKA CITY  CLOUDY    52  29  41 E7        30.30R
PLATTSMOUTH    CLOUDY    52  29  40 NE7       30.30F
$$

NEZ044-045-051>053-067-210400-
OMAHA AREA

CITY           SKY/WX    TMP DP  RH WIND       PRES   REMARKS
OMAHA EPPLEY   CLOUDY    55  28  35 E12       30.31S
BLAIR          CLOUDY    53  30  41 E8        30.31F
FREMONT        CLOUDY    55  29  36 E7        30.31F
MILLARD        CLOUDY    57  30  36 E6        30.30F
OFFUTT AFB     CLOUDY    54  29  38 E9        30.30F
PLATTSMOUTH    CLOUDY    52  29  40 NE7       30.30F
$$



USA.gov is the U.S. government's official web portal to all federal, state and local government web resources and services.